Regional Weather Roundup
Issued by NWS

Home | Current Version | Previous Version | Text Only | Print | Product List | Glossary On
Versions: 1 2 3 4 5 6 7 8 9 10 11 12 13 14 15 16 17 18 19 20 21 22 23 24 25 26 27 28 29 30 31 32 33 34 35 36 37 38 39 40 41 42 43 44 45 46 47 48 49 50
000
ASUS42 KTBW 031916
RWRFL
FLORIDA REGIONAL WEATHER ROUNDUP
NATIONAL WEATHER SERVICE TAMPA BAY RUSKIN FL
300 PM EDT SUN MAY 03 2015

NOTE: "FAIR" INDICATES FEW OR NO CLOUDS BELOW 12,000 FEET WITH NO
SIGNIFICANT WEATHER AND/OR OBSTRUCTIONS TO VISIBILITY.


FLZ001>010-012>015-112-114-115-032000-
PANHANDLE FLORIDA

CITY           SKY/WX    TMP DP  RH WIND       PRES   REMARKS
PENSACOLA      SUNNY     77  59  53 SE10G17   30.14F
PENSACOLA NAS  MOSUNNY   78  61  55 SE12      30.14F
MILTON NAS     MOSUNNY   79  56  45 VRB7      30.14F
CRESTVIEW      PTSUNNY   79  57  46 S9G17     30.15F
VALPARAISO     MOSUNNY   79  62  55 S10       30.15F
MARY ESTHER    SUNNY     77  60  55 S12       30.14F
PANAMA CITY    FAIR      82  52  35 S9        30.13F
TYNDALL AFB    DRIZZLE   80  64  58 S13       30.13F
APALACHICOLA   SUNNY     80  63  55 SE14G20   30.15F

STATION/POSITION SKY/WX   TEMP    WIND        PRES    WAVE   SWELL
                          AIR SEA DIR/SP/G            HT/PER HT/PER
                          (F)     (DEG/KT/KT) (MB)    (FT/S) (FT/S)
30.1N   87.6W              72 76   90/ 10/ 12 1020.3F   1/ 3
29.2N   88.2W              73 76  120/ 10/ 14 1020.5F   1/ 5
28.8N   86.0W              74 74  120/ 16/ 19 1020.2F   4/ 5
PANAMA CITY BEAC           75 74  160/ 10/ 12 1020.9F
CAPE SAN BLAS    NOT AVBL
TOWER C                    71     110/ 15/ 15 1020.8F
28.5N   84.5W              75 75  100/ 14/ 16 1020.4F   3/ 6

$$
FLZ011-016>038-118-127-128-134-139-239-032000-
NORTH FLORIDA

CITY           SKY/WX    TMP DP  RH WIND       PRES   REMARKS
MARIANNA       PTSUNNY   80  52  37 VRB6      30.14F
TALLAHASSEE    PTSUNNY   81  48  31 N5        30.14F
PERRY          MOSUNNY   81  49  32 CALM      30.15F
CROSS CITY       N/A     84  50  30 SE8       30.14F
LAKE CITY      FAIR      81  48  32 SE12      30.16F
GAINESVILLE    PTSUNNY   78  49  35 E7        30.16F
MAYPORT NAS    SUNNY     78  52  40 NE8       30.19S
JACKSONVILLE   MOSUNNY   78  48  34 E12       30.17F
JAX NAS        MOSUNNY   83  45  26 SE12      30.18F
JAX CRAIG      SUNNY     79  48  33 SE10      30.19S
JAX CECIL      MOSUNNY   81  46  30 SE10      30.17F
FERNANDINA BEA FAIR      82  50  32 E7        30.18F
ST AUGUSTINE   SUNNY     78  55  44 E10       30.19F

STATION/POSITION SKY/WX   TEMP    WIND        PRES    WAVE   SWELL
                          AIR SEA DIR/SP/G            HT/PER HT/PER
                          (F)     (DEG/KT/KT) (MB)    (FT/S) (FT/S)
SHELL POINT                75     140/  8/ 11   N/A
KEATON BEACH               74     260/  9/ 10 1021.0F
CEDAR KEY                  76     100/  7/  8 1020.8F
FERNANDINA                 76 72  130/  4/  8 1021.8F
30.7N   81.3W                 76                N/A     2/14   2/14
MAYPORT                    73 72   60/  8/  8 1022.6F
31.4N   80.9W              71 74  130/  2/  4 1023.0F   3/13   3/13
ST AUGUSTINE               72 73  130/  6/  7 1023.0F

$$
FLZ040-043>046-052-053-057-058-063-144-032000-
INTERIOR CENTRAL FLORIDA

CITY           SKY/WX    TMP DP  RH WIND       PRES   REMARKS
OCALA          MOSUNNY   82  48  30 E9        30.15F
THE VILLAGES     N/A     82  57  42 E7        30.04F
LEESBURG       MOSUNNY   83  50  31 VRB6      30.15F
SANFORD        SUNNY     82  53  36 E13       30.15F
ORLANDO EXEC   MOSUNNY   79  54  41 E14G22    30.14F
ORLANDO INTL   MOSUNNY   83  57  41 E10       30.14F
KISSIMMEE      PTSUNNY   81  55  41 E9        30.14F
WINTER HAVEN   SUNNY     83  49  30 VRB7      30.14F
LAKELAND       SUNNY     81  52  36 E13       30.13F
BARTOW         MOSUNNY   81  48  32 E5        30.13F
OKEECHOBEE     MOSUNNY   79  55  44 E9        30.12F

$$
FLZ041-047-054-059-064-141-147-032000-
EAST CENTRAL FLORIDA

CITY           SKY/WX    TMP DP  RH WIND       PRES   REMARKS
DAYTONA BEACH  MOSUNNY   78  55  44 NE13      30.17F
DELAND           N/A     79  50  36 NE12      30.17F
NEW SMYRNA BEA MOSUNNY   79  54  41 E12G17    30.18F
JFK SPACE CTR  MOSUNNY   77  57  48 E12       30.15F
TITUSVILLE     PTSUNNY   79  57  47 E12       30.16F
CAPE CANAVERAL SUNNY     79  58  47 NE13      30.14F
PATRICK AFB    SUNNY     80  57  45 E13       30.14F
MELBOURNE      MOSUNNY   80  54  40 E15       30.15F
VERO BEACH     SUNNY     80  53  39 E12       30.15S
FT PIERCE      SUNNY     81  53  37 E9G18     30.13F
STUART         PTSUNNY   79  57  47 NE14G21   30.14

STATION/POSITION SKY/WX   TEMP    WIND        PRES    WAVE   SWELL
                          AIR SEA DIR/SP/G            HT/PER HT/PER
                          (F)     (DEG/KT/KT) (MB)    (FT/S) (FT/S)
28.5N   80.2W              74 76   90/ 12/ 14 1021.7F
28.9N   78.5W              73 78   50/ 10/ 14 1022.2F
TRIDENT PIER               78 77   70/ 11/ 14 1021.9F
28.4N   80.5W                 77                N/A     3/13   2/13
27.5N   80.2W                 78                N/A     4/11   3/11

$$
FLZ050-056-061-142-242-148-248-149-249-151-251-155-255-
160-260-032000-
WEST CENTRAL FLORIDA

CITY           SKY/WX    TMP DP  RH WIND       PRES   REMARKS
CRYSTAL RIVER  FAIR      82  37  20 SE8       30.13F
INVERNESS      FAIR     N/A N/A N/A E5        30.14F
BROOKSVILLE    SUNNY     83  48  29 E12G20    30.13F
CLEARWATER     SUNNY     82  48  30 NE7       30.12F
TAMPA INTL     MOSUNNY   83  44  25 VRB5      30.13F
TAMPA EXEC     SUNNY     82  45  26 NE8       30.13F
PLANT CITY     SUNNY     84  50  30 NE10      30.14F
MACDILL AFB    SUNNY     85  49  29 E13G18    30.11F
PETER O KNIGHT SUNNY     86  46  25 E7        30.12F
ST PETERSBURG  SUNNY     81  52  36 E9        30.10F
SARASOTA       SUNNY     84  50  30 E12       30.08F
VENICE         FAIR      82  52  34 E14G21    30.10F

STATION/POSITION SKY/WX   TEMP    WIND        PRES    WAVE   SWELL
                          AIR SEA DIR/SP/G            HT/PER HT/PER
                          (F)     (DEG/KT/KT) (MB)    (FT/S) (FT/S)
CEDAR KEY                  76     100/  7/  8 1020.8F
28.5N   84.5W              75 75  100/ 14/ 16 1020.4F   3/ 6
27.3N   84.2W                 76                N/A     5/ 6
CLEARWATER BEACH           79 76   70/  9/ 13 1020.3
MIDDLE TAMPA BAY           77      60/ 11/ 12 1020.3F
VENICE                     81 79   40/ 10/ 13 1018.6F

$$
FLZ066-069-070-075>078-162-262-165-265-032000-
SOUTHWEST FLORIDA AND KEYS

CITY           SKY/WX    TMP DP  RH WIND       PRES   REMARKS
PUNTA GORDA    MOSUNNY   83  53  35 E16       30.11F
FT MYERS       PTSUNNY   84  53  34 E10G23    30.08F
SOUTHWEST INTL MOSUNNY   83  54  36 SE10      30.08F
NAPLES         MOSUNNY   85  53  33 E20       30.06F
MARCO ISLAND   MOCLDY    84  52  32 E15G21    30.07F
IMMOKALEE      PTCLDY   N/A N/A N/A E15       30.09F
MARATHON       MOSUNNY   82  62  50 E20G28    30.06F
KEY WEST NAS   MOSUNNY   83  63  50 E24       30.05F
KEY WEST INTL  SUNNY     81  63  54 E21G26    30.05F

STATION/POSITION SKY/WX   TEMP    WIND        PRES    WAVE   SWELL
                          AIR SEA DIR/SP/G            HT/PER HT/PER
                          (F)     (DEG/KT/KT) (MB)    (FT/S) (FT/S)
VENICE                     81 79   40/ 10/ 13 1018.6F
NAPLES                     80 78   60/  6/ 12 1018.6F
26.0N   85.6W              77 80  100/ 21/ 27 1017.5F   6/ 7
DRY TORTUGAS               77      80/ 21/ 23 1017.7F
NW FL BAY                  77     110/ 20/ 23 1018.7
SAND KEY                   77      90/ 22/ 26 1017.3F
SOMBRERO KEY               77      80/ 22/ 25 1017.8F
LONG KEY                   76 77   70/ 19/ 22 1018.7F
MOLASSES REEF              76 80   60/ 17/ 21 1018.0F

$$
FLZ067-068-071>074-168-172>174-032000-
SOUTHEAST FLORIDA

CITY           SKY/WX    TMP DP  RH WIND       PRES   REMARKS
W PALM BEACH   PTSUNNY   80  58  46 E15       30.13F
FT LAUDER-EXEC MOSUNNY   80  58  46 NE12G22   30.10F
FT LAUDERDALE  MOSUNNY   80  58  46 E15G24    30.10F
POMPANO BEACH  SUNNY     80  57  45 NE14G22   30.11F
PEMBROKE PINES PTSUNNY   79  57  46 NE15G23   30.12F
OPA LOCKA      MOSUNNY   81  57  43 E15       30.10F
MIAMI          PTSUNNY   81  55  40 E16G22    30.09F
WEST KENDALL   MOSUNNY   81  57  43 E14G22    30.09F
HOMESTEAD      SUNNY     79  58  48 E14G22    30.08F

STATION/POSITION SKY/WX   TEMP    WIND        PRES    WAVE   SWELL
                          AIR SEA DIR/SP/G            HT/PER HT/PER
                          (F)     (DEG/KT/KT) (MB)    (FT/S) (FT/S)
PORT EVERGLADES            76      60/ 12/ 16 1019.4F
VIRGINIA KEY               76 78   60/ 11/ 15 1019.0F
LAKE WORTH                 75 79   70/ 11/ 14 1019.9F
SETTLEMENT POINT           74      70/ 18/ 21 1020.7F

$$



USA.gov is the U.S. government's official web portal to all federal, state and local government web resources and services.